This is the latest recevied weather packets stored in our database for station/object DH5RAE-11. If no packets are shown the sender has not sent any weather packets the latest 10 day(s).
| Time | Temp. | Humidity | Pressure | Rain* | Wind** | Luminosity | Snow |
|---|---|---|---|---|---|---|---|
| 1787476272 | 17.78° C | 74% | 1025.5 hPa | 0 mm | - | - | - |
| 1787475602 | 17.78° C | 75% | 1025.4 hPa | 0 mm | - | - | - |
| 1787475002 | 17.78° C | 76% | 1025.2 hPa | 0 mm | - | - | - |
| 1787474333 | 17.78° C | 79% | 1025.3 hPa | 0 mm | - | - | - |
| 1787473733 | 17.78° C | 84% | 1025.3 hPa | 0 mm | - | - | - |
| 1787473133 | 17.22° C | 85% | 1025.4 hPa | 0 mm | - | - | - |
| 1787472532 | 17.22° C | 87% | 1025.4 hPa | 0 mm | - | - | - |
| 1787471864 | 17.22° C | 89% | 1025.3 hPa | 0 mm | - | - | - |
| 1787471125 | 16.11° C | 90% | 1025.2 hPa | 0 mm | - | - | - |
| 1787470454 | 16.11° C | 91% | 1025.2 hPa | 0 mm | - | - | - |
| 1787469853 | 14.44° C | 92% | 1025.2 hPa | 0 mm | - | - | - |
| 1787469252 | 14.44° C | 92% | 1025.3 hPa | 0 mm | - | - | - |
| 1787468651 | 13.89° C | 92% | 1025.3 hPa | 0 mm | - | - | - |
| 1787467981 | 13.89° C | 92% | 1025.3 hPa | 0 mm | - | - | - |
| 1787467379 | 7.78° C | 92% | 1025.2 hPa | 0 mm | - | - | - |
| 1787466777 | 7.78° C | 92% | 1025.2 hPa | 0 mm | - | - | - |
| 1787466176 | 7.78° C | 92% | 1025.2 hPa | 0 mm | - | - | - |
| 1787465574 | 7.78° C | 92% | 1025.2 hPa | 0 mm | - | - | - |
| 1787464973 | 7.78° C | 91% | 1025.2 hPa | 0 mm | - | - | - |
| 1787464303 | 6.67° C | 91% | 1025.2 hPa | 0 mm | - | - | - |
| 1787463290 | 6.67° C | 91% | 1025.1 hPa | 0 mm | - | - | - |
| 1787462689 | 6.11° C | 91% | 1025.1 hPa | 0 mm | - | - | - |
| 1787462088 | 6.11° C | 91% | 1025 hPa | 0 mm | - | - | - |
| 1787461281 | 6.11° C | 91% | 1025 hPa | 0 mm | - | - | - |
| 1787460681 | 5.56° C | 91% | 1025.1 hPa | 0 mm | - | - | - |
* Rain latest hour (hover to see other rain measurements)
** Current wind speed in m/s (hover to see current wind gust speed)